KMIA

Miami

Airport
ICAO code
KMIA
Summary
ICAO Region
NAM
ICAO Territory
Location

Miami, Florida,

Coordinates
25° 47' 41" N , 80° 17' 23" W
KCC
Metar
Observation
KMIA 282053Z 07008KT 10SM FEW035 SCT042 SCT055 BKN250 28/22 A2999 RMK AO2 SLP156 T02830217 55004
Station
Miami, Miami International Airport
Date/Time
2022-11-28 20:53:00
Wind direction
70°
Wind speed
08 kts
Lowest cloud amount
few clouds
Temperature
28.3°C
Dew point
21.7°C
Humidity
67%
Weather condition
n/a

Description

International airport serving the city of Miami and southeast Florida, USA.

Climatology

Tropical Monsoon climate (Köppen climate classification Am) - monthly mean temperatures above 18°C in every month of the year and features wet and dry seasons. A tropical monsoon climate typically features less pronounced dry seasons than a tropical savanna climate and see less variance in temperatures during the course of the year. The driest month nearly always occurs at or soon after the "winter" solstice.

Runways

Designator Length Width Surface Rops
08L/26R 2621 46 ASP Yes/Yes
12/30 2851 46 ASP Yes/Yes
08R/26L 3202 61 ASP Yes/Yes
9/27 3962 46 ASP Yes/Yes

Airport map

Aerial View

SKYbrary Partners:

Safety knowledge contributed by: